Location: Asheville, NC
(35.6000°N, 82.5500°W)
Time: 03:13:39
(UTC-04:00)

CAS-4B - Visible Passes

Search period start: 25 May 2018 00:00
Search period end: 04 June 2018 00:00
Orbit: 531 x 545 km, 43.0° (Epoch: 24 May)

Date Brightness Start Highest point End Pass type
(mag) Time Alt. Az. Time Alt. Az. Time Alt. Az.
25 May ? 03:13:24 37° NE 03:13:24 37° NE 03:16:09 10° ENE visible
25 May ? 04:49:13 10° WNW 04:52:49 28° N 04:56:26 10° ENE visible
26 May ? 03:03:43 33° NNE 03:03:43 33° NNE 03:06:23 10° NE visible
26 May ? 04:39:35 10° WNW 04:43:11 28° N 04:46:47 10° ENE visible
27 May ? 02:54:03 30° NNE 02:54:03 30° NNE 02:56:37 10° NE visible
27 May ? 04:29:57 10° WNW 04:33:33 28° N 04:37:09 10° ENE visible
28 May ? 02:44:24 28° NNE 02:44:24 28° NNE 02:46:51 10° NE visible
28 May ? 04:20:17 10° WNW 04:23:54 29° N 04:27:33 10° ENE visible
29 May ? 02:34:47 25° NNE 02:34:47 25° NNE 02:37:07 10° NE visible
29 May ? 04:10:36 10° NW 04:14:16 30° N 04:17:57 10° ENE visible
30 May ? 02:25:13 23° NNE 02:25:13 23° NNE 02:27:24 10° NE visible
30 May ? 04:00:53 10° NW 04:04:37 33° N 04:08:22 10° ENE visible
30 May ? 05:41:00 10° WNW 05:45:07 88° SSW 05:49:15 10° ESE visible
31 May ? 02:15:49 21° NE 02:15:49 21° NE 02:17:42 10° ENE visible
31 May ? 03:51:11 10° NW 03:54:57 36° NNE 03:58:47 10° E visible
31 May ? 05:31:15 10° WNW 05:35:21 70° SSW 05:39:28 10° SE visible
01 Jun ? 02:06:41 18° NE 02:06:41 18° NE 02:08:02 10° ENE visible
01 Jun ? 03:42:05 14° NW 03:45:17 41° NNE 03:49:11 10° E visible
01 Jun ? 05:21:34 10° WNW 05:25:34 53° SSW 05:29:36 10° SE visible
01 Jun ? 22:29:50 10° SW 22:33:29 49° SSE 22:33:29 49° SSE visible
02 Jun ? 01:58:10 11° ENE 01:58:10 11° ENE 01:58:23 10° ENE visible
02 Jun ? 03:33:38 26° NW 03:35:35 47° NNE 03:39:35 10° E visible
02 Jun ? 05:11:53 10° WNW 05:15:46 41° SW 05:19:38 10° SE visible
02 Jun ? 22:19:57 10° SW 22:23:58 65° SSE 22:27:26 14° ENE visible
03 Jun ? 00:00:32 10° W 00:02:59 28° NW 00:02:59 28° NW visible
03 Jun ? 03:26:22 52° NE 03:26:22 52° NE 03:29:55 10° ESE visible
03 Jun ? 05:02:18 10° W 05:05:57 31° SW 05:09:35 10° SSE visible
03 Jun ? 22:10:08 10° WSW 22:14:11 84° SSE 22:18:16 10° ENE visible
03 Jun ? 23:50:57 10° WNW 23:54:39 33° NNW 23:55:30 30° NNE visible
